Datetime-UTC, Datetime-J2000, North, East, Up
2024/03/12 00:00:00, 763473600.00, 0.000000, 0.000000, 0.000000
2024/03/12 00:05:00, 763473900.00, -0.014100, -0.002600, -0.049700
2024/03/12 00:10:00, 763474200.00, -0.006000, -0.001900, -0.010200
2024/03/12 00:15:00, 763474500.00, -0.004600, 0.001800, 0.001000
2024/03/12 00:20:00, 763474800.00, -0.003500, -0.002900, 0.002600
2024/03/12 00:25:00, 763475100.00, -0.006800, 0.001300, 0.011600
2024/03/12 00:30:00, 763475400.00, -0.001200, 0.003700, -0.012400
2024/03/12 00:35:00, 763475700.00, -0.006000, 0.006100, 0.019700
2024/03/12 00:40:00, 763476000.00, 0.000000, 0.008800, 0.001800
2024/03/12 00:45:00, 763476300.00, 0.003300, 0.006700, 0.011800
2024/03/12 00:50:00, 763476600.00, 0.000500, 0.004400, 0.011500
2024/03/12 00:55:00, 763476900.00, 0.003700, 0.007100, 0.020600
2024/03/12 01:00:00, 763477200.00, 0.000700, -0.000200, 0.012100
2024/03/12 01:05:00, 763477500.00, 0.000100, -0.000500, 0.011100
2024/03/12 01:10:00, 763477800.00, 0.002400, 0.008900, 0.010700
2024/03/12 01:15:00, 763478100.00, 0.003200, -0.000400, 0.015500
2024/03/12 01:20:00, 763478400.00, 0.009400, 0.004800, 0.000000
2024/03/12 01:25:00, 763478700.00, 0.001700, 0.002300, 0.020900
2024/03/12 01:30:00, 763479000.00, 0.005000, 0.002100, -0.000900
2024/03/12 01:35:00, 763479300.00, 0.011100, 0.000100, 0.015300
2024/03/12 01:40:00, 763479600.00, 0.014900, -0.000700, 0.015300
2024/03/12 01:45:00, 763479900.00, 0.010900, 0.011100, 0.001700
2024/03/12 01:50:00, 763480200.00, 0.016900, 0.004900, -0.004300
2024/03/12 01:55:00, 763480500.00, 0.012400, 0.009600, -0.003000
2024/03/12 02:00:00, 763480800.00, 0.011200, 0.010800, 0.005100
2024/03/12 02:05:00, 763481100.00, 0.008500, 0.008900, 0.014000
2024/03/12 02:10:00, 763481400.00, 0.012400, 0.007100, 0.005300
2024/03/12 02:15:00, 763481700.00, 0.009300, 0.007300, 0.012700
2024/03/12 02:20:00, 763482000.00, 0.012800, 0.008000, -0.002800
2024/03/12 02:25:00, 763482300.00, 0.006000, 0.008400, 0.022800
2024/03/12 02:30:00, 763482600.00, 0.014200, 0.012700, 0.013700
2024/03/12 02:35:00, 763482900.00, 0.010600, 0.006100, 0.007200
2024/03/12 02:40:00, 763483200.00, 0.015700, 0.013500, 0.024000
2024/03/12 02:45:00, 763483500.00, 0.006700, 0.008900, 0.003600
2024/03/12 02:50:00, 763483800.00, 0.009100, 0.006200, 0.015000
2024/03/12 02:55:00, 763484100.00, 0.015200, 0.006000, 0.030400
2024/03/12 03:00:00, 763484400.00, 0.009000, 0.008600, 0.028200
2024/03/12 03:05:00, 763484700.00, 0.012600, 0.011800, 0.033500
2024/03/12 03:10:00, 763485000.00, 0.007500, 0.013500, 0.034800
2024/03/12 03:15:00, 763485300.00, 0.000900, 0.018100, 0.036200
2024/03/12 03:20:00, 763485600.00, 0.000400, 0.023300, 0.029500
2024/03/12 03:25:00, 763485900.00, 0.001400, 0.020900, 0.018900
2024/03/12 03:30:00, 763486200.00, 0.002800, 0.013900, 0.007800
2024/03/12 03:35:00, 763486500.00, 0.006900, 0.009100, -0.007800
2024/03/12 03:40:00, 763486800.00, 0.005200, 0.010000, -0.004700
2024/03/12 03:45:00, 763487100.00, 0.000300, 0.005800, -0.000500
2024/03/12 03:50:00, 763487400.00, -0.004500, 0.009400, -0.011200
2024/03/12 03:55:00, 763487700.00, -0.004600, 0.013200, 0.005500
2024/03/12 04:00:00, 763488000.00, 0.001200, 0.006900, 0.002900
2024/03/12 04:05:00, 763488300.00, 0.007100, 0.008300, 0.004900
2024/03/12 04:10:00, 763488600.00, 0.004300, 0.006400, -0.003900
2024/03/12 04:15:00, 763488900.00, 0.004900, 0.002700, -0.000300
2024/03/12 04:20:00, 763489200.00, 0.010600, 0.004900, 0.003900
2024/03/12 04:25:00, 763489500.00, 0.013700, 0.004600, -0.006400
2024/03/12 04:30:00, 763489800.00, 0.012400, -0.001900, -0.003100
2024/03/12 04:35:00, 763490100.00, 0.005200, 0.005100, 0.016700
2024/03/12 04:40:00, 763490400.00, 0.016300, -0.003300, -0.010700
2024/03/12 04:45:00, 763490700.00, 0.008100, 0.006400, 0.016600
2024/03/12 04:50:00, 763491000.00, 0.005500, 0.003200, 0.026300
2024/03/12 04:55:00, 763491300.00, 0.014800, 0.007000, 0.004400
2024/03/12 05:00:00, 763491600.00, 0.007000, 0.009100, 0.019100
2024/03/12 05:05:00, 763491900.00, 0.007300, 0.005800, 0.032800
2024/03/12 05:10:00, 763492200.00, 0.003800, -0.002300, -0.001200
2024/03/12 05:15:00, 763492500.00, 0.007900, -0.003800, 0.006600
2024/03/12 05:20:00, 763492800.00, 0.008300, 0.005600, 0.014000
2024/03/12 05:25:00, 763493100.00, 0.010600, -0.006200, -0.010500
2024/03/12 05:30:00, 763493400.00, 0.012400, 0.003800, 0.004700
2024/03/12 05:35:00, 763493700.00, 0.012200, -0.003800, 0.013000
2024/03/12 05:40:00, 763494000.00, 0.012400, -0.003000, 0.014300
2024/03/12 05:45:00, 763494300.00, 0.008600, 0.000900, 0.017700
2024/03/12 05:50:00, 763494600.00, 0.002900, 0.008000, 0.038800
2024/03/12 05:55:00, 763494900.00, 0.006600, 0.009600, 0.003900
2024/03/12 06:00:00, 763495200.00, 0.005900, 0.008700, 0.006600
2024/03/12 06:05:00, 763495500.00, 0.008300, 0.006500, -0.010700
2024/03/12 06:10:00, 763495800.00, 0.001200, 0.007900, 0.001400
2024/03/12 06:15:00, 763496100.00, 0.009400, 0.005500, 0.018200
2024/03/12 06:20:00, 763496400.00, 0.008400, 0.015900, 0.016600
2024/03/12 06:25:00, 763496700.00, 0.009200, 0.012800, 0.012700
2024/03/12 06:30:00, 763497000.00, 0.003600, 0.012000, 0.006300
2024/03/12 06:35:00, 763497300.00, 0.006200, 0.007900, 0.008900
2024/03/12 06:40:00, 763497600.00, 0.005000, 0.014400, 0.004900
2024/03/12 06:45:00, 763497900.00, 0.008300, 0.014200, -0.001300
2024/03/12 06:50:00, 763498200.00, 0.000300, 0.011500, 0.017900
2024/03/12 06:55:00, 763498500.00, 0.010100, 0.014000, 0.007200
2024/03/12 07:00:00, 763498800.00, 0.006500, 0.012500, 0.006600
2024/03/12 07:05:00, 763499100.00, 0.003000, 0.012900, 0.009300
2024/03/12 07:10:00, 763499400.00, 0.008700, 0.014500, 0.004200
2024/03/12 07:15:00, 763499700.00, -0.000500, 0.009400, 0.005900
2024/03/12 07:20:00, 763500000.00, -0.000300, 0.011500, 0.008200
2024/03/12 07:25:00, 763500300.00, 0.008400, 0.007000, 0.013400
2024/03/12 07:30:00, 763500600.00, 0.018300, 0.015600, 0.006800
2024/03/12 07:35:00, 763500900.00, 0.014300, 0.003700, 0.020000
2024/03/12 07:40:00, 763501200.00, 0.029100, 0.020800, -0.040700
2024/03/12 07:45:00, 763501500.00, 0.016200, 0.006900, -0.004600
2024/03/12 07:50:00, 763501800.00, 0.027600, 0.011600, -0.007500
2024/03/12 07:55:00, 763502100.00, 0.015400, 0.007900, -0.010600
2024/03/12 08:00:00, 763502400.00, 0.028600, 0.011400, -0.013000
2024/03/12 08:05:00, 763502700.00, 0.017300, 0.004200, -0.016500
2024/03/12 08:10:00, 763503000.00, 0.016200, 0.007600, 0.011000
2024/03/12 08:15:00, 763503300.00, 0.009300, 0.006800, 0.002600
2024/03/12 08:20:00, 763503600.00, 0.011900, 0.004400, -0.005600
2024/03/12 08:25:00, 763503900.00, 0.009700, 0.008300, 0.022100
2024/03/12 08:30:00, 763504200.00, 0.012200, 0.009700, 0.021000
2024/03/12 08:35:00, 763504500.00, 0.008200, 0.008900, 0.014000
2024/03/12 08:40:00, 763504800.00, 0.003300, 0.002900, 0.014900
2024/03/12 08:45:00, 763505100.00, -0.002900, 0.004800, -0.007300
2024/03/12 08:50:00, 763505400.00, 0.011500, 0.011400, 0.020800
2024/03/12 08:55:00, 763505700.00, 0.002500, 0.001400, 0.003300
2024/03/12 09:00:00, 763506000.00, 0.007000, 0.003200, 0.012600
2024/03/12 09:05:00, 763506300.00, 0.014600, 0.004100, 0.016500
2024/03/12 09:10:00, 763506600.00, 0.006200, 0.004500, 0.012800
2024/03/12 09:15:00, 763506900.00, 0.009900, 0.002000, 0.009600
2024/03/12 09:20:00, 763507200.00, 0.016800, 0.004800, 0.010300
2024/03/12 09:25:00, 763507500.00, 0.016300, 0.005300, 0.018300
2024/03/12 09:30:00, 763507800.00, 0.014600, 0.011600, 0.012500
2024/03/12 09:35:00, 763508100.00, 0.020400, 0.005600, 0.028000
2024/03/12 09:40:00, 763508400.00, 0.018300, 0.011400, 0.010600
2024/03/12 09:45:00, 763508700.00, 0.021800, 0.009500, 0.021300
2024/03/12 09:50:00, 763509000.00, 0.017500, 0.010300, 0.009100
2024/03/12 09:55:00, 763509300.00, 0.022200, 0.009600, -0.001500
2024/03/12 10:00:00, 763509600.00, 0.015700, 0.015900, 0.006500
2024/03/12 10:05:00, 763509900.00, 0.020700, 0.008800, 0.003300
2024/03/12 10:10:00, 763510200.00, 0.014300, 0.018000, 0.010700
2024/03/12 10:15:00, 763510500.00, 0.017300, 0.009300, 0.000000
2024/03/12 10:20:00, 763510800.00, 0.015300, 0.015700, 0.006300
2024/03/12 10:25:00, 763511100.00, 0.015500, 0.012800, -0.007900
2024/03/12 10:30:00, 763511400.00, 0.013900, 0.015900, -0.008200
2024/03/12 10:35:00, 763511700.00, 0.004900, 0.017100, 0.009900
2024/03/12 10:40:00, 763512000.00, 0.015000, 0.008600, -0.018600
2024/03/12 10:45:00, 763512300.00, 0.023100, 0.015400, -0.003900
2024/03/12 10:50:00, 763512600.00, 0.010000, 0.014500, -0.004500
2024/03/12 10:55:00, 763512900.00, 0.003800, 0.012900, 0.006400
2024/03/12 11:00:00, 763513200.00, 0.011600, 0.006800, -0.020100
2024/03/12 11:05:00, 763513500.00, 0.009900, 0.024200, 0.015200
2024/03/12 11:10:00, 763513800.00, 0.017800, 0.014400, -0.003000
2024/03/12 11:15:00, 763514100.00, 0.005100, 0.018300, 0.004100
2024/03/12 11:20:00, 763514400.00, 0.009800, 0.011600, -0.000900
2024/03/12 11:25:00, 763514700.00, 0.008500, 0.014300, 0.003600
2024/03/12 11:30:00, 763515000.00, 0.010200, 0.013700, 0.014400
2024/03/12 11:35:00, 763515300.00, 0.012300, 0.017000, 0.016700
2024/03/12 11:40:00, 763515600.00, 0.006300, 0.012500, 0.014400
2024/03/12 11:45:00, 763515900.00, 0.007400, 0.008600, 0.021100
2024/03/12 11:50:00, 763516200.00, -0.003400, 0.008800, -0.009500
2024/03/12 11:55:00, 763516500.00, 0.002400, 0.003800, 0.000700
2024/03/12 12:00:00, 763516800.00, 0.008200, 0.007200, 0.013300
2024/03/12 12:05:00, 763517100.00, 0.005400, 0.013700, 0.010200
2024/03/12 12:10:00, 763517400.00, 0.009700, 0.012700, 0.028800
2024/03/12 12:15:00, 763517700.00, 0.011400, 0.009900, 0.028800
2024/03/12 12:20:00, 763518000.00, 0.011400, 0.010200, 0.015900
2024/03/12 12:25:00, 763518300.00, 0.015100, 0.009500, 0.013400
2024/03/12 12:30:00, 763518600.00, 0.009400, 0.006800, 0.027100
2024/03/12 12:35:00, 763518900.00, 0.004800, 0.004700, 0.016300
2024/03/12 12:40:00, 763519200.00, 0.017800, 0.004400, 0.013100
2024/03/12 12:45:00, 763519500.00, 0.014900, 0.010200, 0.007000
2024/03/12 12:50:00, 763519800.00, 0.013500, 0.017700, -0.002600
2024/03/12 12:55:00, 763520100.00, 0.014800, 0.011800, 0.023500
2024/03/12 13:00:00, 763520400.00, 0.015100, 0.013700, 0.009500
2024/03/12 13:05:00, 763520700.00, 0.008400, 0.017300, 0.035400
2024/03/12 13:10:00, 763521000.00, 0.015300, 0.021200, 0.009200
2024/03/12 13:15:00, 763521300.00, 0.012300, 0.017900, 0.021200
2024/03/12 13:20:00, 763521600.00, 0.011700, 0.014300, 0.019000
2024/03/12 13:25:00, 763521900.00, 0.000600, 0.015300, 0.026100
2024/03/12 13:30:00, 763522200.00, 0.002700, 0.013100, 0.026800
2024/03/12 13:35:00, 763522500.00, 0.014600, 0.020900, 0.028900
2024/03/12 13:40:00, 763522800.00, 0.006900, 0.011200, 0.022600
2024/03/12 13:45:00, 763523100.00, 0.010900, 0.013600, 0.018600
2024/03/12 13:50:00, 763523400.00, 0.002500, 0.013600, 0.017600
2024/03/12 13:55:00, 763523700.00, 0.002600, 0.022900, 0.018800
2024/03/12 14:00:00, 763524000.00, 0.011600, 0.016900, 0.019400
2024/03/12 14:05:00, 763524300.00, 0.005800, 0.022000, 0.032600
2024/03/12 14:10:00, 763524600.00, 0.006900, 0.019400, 0.025800
2024/03/12 14:15:00, 763524900.00, 0.017100, 0.018700, 0.010400
2024/03/12 14:20:00, 763525200.00, 0.023600, 0.019100, 0.017100
2024/03/12 14:25:00, 763525500.00, 0.018100, 0.019500, 0.008100
2024/03/12 14:30:00, 763525800.00, 0.012600, 0.015300, -0.005800
2024/03/12 14:35:00, 763526100.00, 0.010300, 0.016600, -0.003500
2024/03/12 14:40:00, 763526400.00, 0.012000, 0.022900, -0.009900
2024/03/12 14:45:00, 763526700.00, 0.011500, 0.024200, 0.011900
2024/03/12 14:50:00, 763527000.00, 0.018900, 0.029700, 0.003900
2024/03/12 14:55:00, 763527300.00, 0.015300, 0.028300, -0.000800
2024/03/12 15:00:00, 763527600.00, 0.004800, 0.031400, 0.009500
2024/03/12 15:05:00, 763527900.00, -0.004500, 0.031400, 0.019200
2024/03/12 15:10:00, 763528200.00, 0.003000, 0.033200, 0.024600
2024/03/12 15:15:00, 763528500.00, -0.003000, 0.022100, 0.023300
2024/03/12 15:20:00, 763528800.00, 0.002800, 0.019400, -0.008800
2024/03/12 15:25:00, 763529100.00, 0.006400, 0.025900, 0.012600
2024/03/12 15:30:00, 763529400.00, 0.009900, 0.033200, 0.009900
2024/03/12 15:35:00, 763529700.00, 0.008200, 0.022600, 0.004000
2024/03/12 15:40:00, 763530000.00, 0.007100, 0.028000, -0.014600
2024/03/12 15:45:00, 763530300.00, 0.006800, 0.031200, -0.020900
2024/03/12 15:50:00, 763530600.00, 0.012500, 0.030200, -0.008400
2024/03/12 15:55:00, 763530900.00, 0.013600, 0.024000, -0.010400
2024/03/12 16:00:00, 763531200.00, 0.013900, 0.026300, -0.007200
2024/03/12 16:05:00, 763531500.00, 0.013800, 0.020100, 0.016200
2024/03/12 16:10:00, 763531800.00, 0.014100, 0.019000, 0.009300
2024/03/12 16:15:00, 763532100.00, 0.008700, 0.022900, 0.013700
2024/03/12 16:20:00, 763532400.00, 0.014800, 0.019600, -0.013200
2024/03/12 16:25:00, 763532700.00, 0.013400, 0.011800, -0.008100
2024/03/12 16:30:00, 763533000.00, 0.027100, 0.010800, -0.019800
2024/03/12 16:35:00, 763533300.00, 0.017100, 0.013100, 0.013000
2024/03/12 16:40:00, 763533600.00, 0.022400, 0.011000, -0.019400
2024/03/12 16:45:00, 763533900.00, 0.019000, 0.014100, -0.000600
2024/03/12 16:50:00, 763534200.00, 0.006900, 0.005100, -0.029400
2024/03/12 16:55:00, 763534500.00, 0.012800, 0.015000, -0.015600
2024/03/12 17:00:00, 763534800.00, 0.010600, 0.006000, -0.023200
2024/03/12 17:05:00, 763535100.00, 0.014300, 0.012200, -0.015300
2024/03/12 17:10:00, 763535400.00, 0.006800, -0.000400, -0.015200
2024/03/12 17:15:00, 763535700.00, 0.012000, -0.000300, -0.012900
2024/03/12 17:20:00, 763536000.00, 0.002000, 0.001100, -0.017800
2024/03/12 17:25:00, 763536300.00, 0.003500, -0.003300, -0.012800
2024/03/12 17:30:00, 763536600.00, 0.007800, -0.009200, -0.022400
2024/03/12 17:35:00, 763536900.00, 0.004600, -0.006400, -0.014000
2024/03/12 17:40:00, 763537200.00, 0.014800, -0.006500, -0.011900
2024/03/12 17:45:00, 763537500.00, 0.012900, -0.015400, -0.000300
2024/03/12 17:50:00, 763537800.00, -0.000400, -0.010000, -0.004500
2024/03/12 17:55:00, 763538100.00, 0.007700, -0.013400, 0.005900
2024/03/12 18:00:00, 763538400.00, 0.003500, -0.004200, -0.014600
2024/03/12 18:05:00, 763538700.00, 0.006700, -0.005900, -0.007500
2024/03/12 18:10:00, 763539000.00, 0.007700, -0.006900, -0.008200
2024/03/12 18:15:00, 763539300.00, 0.005300, -0.007300, -0.009100
2024/03/12 18:20:00, 763539600.00, 0.002700, -0.002300, 0.003100
2024/03/12 18:25:00, 763539900.00, 0.003700, -0.006700, -0.006300
2024/03/12 18:30:00, 763540200.00, 0.013100, -0.006500, 0.000300
2024/03/12 18:35:00, 763540500.00, 0.007400, -0.009900, -0.004000
2024/03/12 18:40:00, 763540800.00, 0.008900, -0.009600, -0.019800
2024/03/12 18:45:00, 763541100.00, 0.011800, -0.008000, -0.018600
2024/03/12 18:50:00, 763541400.00, 0.006900, -0.009200, -0.017700
2024/03/12 18:55:00, 763541700.00, 0.013300, -0.013500, -0.013400
2024/03/12 19:00:00, 763542000.00, 0.019200, -0.013700, -0.005600
2024/03/12 19:05:00, 763542300.00, 0.021100, -0.014000, 0.001500
2024/03/12 19:10:00, 763542600.00, 0.018400, -0.018500, -0.001300
2024/03/12 19:15:00, 763542900.00, 0.023900, -0.020600, -0.014800
2024/03/12 19:20:00, 763543200.00, 0.023300, -0.017500, -0.006700
2024/03/12 19:25:00, 763543500.00, 0.017800, -0.018300, -0.015200
2024/03/12 19:30:00, 763543800.00, 0.013900, -0.014900, -0.029600
2024/03/12 19:35:00, 763544100.00, 0.018600, -0.014000, -0.013200
2024/03/12 19:40:00, 763544400.00, 0.018500, -0.014100, -0.013500
2024/03/12 19:45:00, 763544700.00, 0.001900, -0.008400, -0.001200
2024/03/12 19:50:00, 763545000.00, 0.017400, -0.010700, -0.019700
2024/03/12 19:55:00, 763545300.00, 0.011500, -0.010100, 0.006100
2024/03/12 20:00:00, 763545600.00, 0.019100, -0.004200, 0.021200
2024/03/12 20:05:00, 763545900.00, 0.009000, -0.006800, -0.004700
2024/03/12 20:10:00, 763546200.00, 0.004300, -0.004500, -0.003800
2024/03/12 20:15:00, 763546500.00, 0.014500, 0.000500, 0.027700
2024/03/12 20:20:00, 763546800.00, 0.021200, 0.001600, 0.016100
2024/03/12 20:25:00, 763547100.00, 0.025800, 0.002500, 0.024800
2024/03/12 20:30:00, 763547400.00, 0.021700, 0.002600, 0.030000
2024/03/12 20:35:00, 763547700.00, 0.012800, 0.006300, 0.016000
2024/03/12 20:40:00, 763548000.00, 0.009500, 0.007400, 0.024800
2024/03/12 20:45:00, 763548300.00, -0.003400, 0.008800, -0.009700
2024/03/12 20:50:00, 763548600.00, 0.003900, 0.008000, -0.002900
2024/03/12 20:55:00, 763548900.00, -0.007100, 0.006400, 0.007600
2024/03/12 21:00:00, 763549200.00, -0.008400, -0.001500, -0.000200
2024/03/12 21:05:00, 763549500.00, -0.001100, -0.000800, -0.007600
2024/03/12 21:10:00, 763549800.00, -0.013800, 0.006200, -0.015300
2024/03/12 21:15:00, 763550100.00, -0.004200, 0.002400, 0.009700
2024/03/12 21:20:00, 763550400.00, 0.007700, 0.006400, 0.010800
2024/03/12 21:25:00, 763550700.00, -0.004300, 0.006800, 0.024700
2024/03/12 21:30:00, 763551000.00, 0.012100, 0.017200, 0.047000
2024/03/12 21:35:00, 763551300.00, 0.007400, 0.008500, 0.028400
2024/03/12 21:40:00, 763551600.00, 0.010100, 0.008300, 0.034900
2024/03/12 21:45:00, 763551900.00, 0.010500, 0.003000, 0.031300
2024/03/12 21:50:00, 763552200.00, 0.015100, 0.010200, -0.001700
2024/03/12 21:55:00, 763552500.00, 0.011600, 0.006900, 0.016700
2024/03/12 22:00:00, 763552800.00, 0.004500, 0.003500, 0.004800
2024/03/12 22:05:00, 763553100.00, 0.008100, 0.002400, 0.012100
2024/03/12 22:10:00, 763553400.00, 0.013200, 0.006300, 0.010100
2024/03/12 22:15:00, 763553700.00, 0.016200, -0.006000, 0.002900
2024/03/12 22:20:00, 763554000.00, 0.013300, -0.003200, -0.010200
2024/03/12 22:25:00, 763554300.00, 0.004300, -0.003900, 0.008000
2024/03/12 22:30:00, 763554600.00, 0.005000, -0.007000, -0.013800
2024/03/12 22:35:00, 763554900.00, -0.002700, -0.009100, 0.019100
2024/03/12 22:40:00, 763555200.00, -0.007300, -0.008700, 0.000800
2024/03/12 22:45:00, 763555500.00, -0.006200, -0.010300, 0.018300
2024/03/12 22:50:00, 763555800.00, -0.003000, -0.008100, 0.007100
2024/03/12 22:55:00, 763556100.00, 0.002200, -0.009800, 0.002400
2024/03/12 23:00:00, 763556400.00, -0.000400, -0.011400, -0.019700
2024/03/12 23:05:00, 763556700.00, -0.011900, -0.021500, -0.036000
2024/03/12 23:10:00, 763557000.00, -0.010900, -0.020100, -0.023600
2024/03/12 23:15:00, 763557300.00, -0.009500, -0.013800, -0.038000
2024/03/12 23:20:00, 763557600.00, -0.012400, -0.015300, -0.014800
2024/03/12 23:25:00, 763557900.00, -0.005600, -0.011100, -0.045100
2024/03/12 23:30:00, 763558200.00, -0.010400, -0.006900, -0.048400
2024/03/12 23:35:00, 763558500.00, -0.010800, -0.010100, -0.041900
2024/03/12 23:40:00, 763558800.00, -0.007300, -0.006600, -0.040300
2024/03/12 23:45:00, 763559100.00, -0.007800, -0.001400, -0.051300
2024/03/12 23:50:00, 763559400.00, -0.009000, -0.007100, -0.057400
2024/03/12 23:55:00, 763559700.00, -0.014200, -0.007900, -0.061800
2024/03/13 00:00:00, 763560000.00, -0.036200, -0.027500, -0.058000
2024/03/13 00:05:00, 763560300.00, -0.026900, -0.020000, -0.001100
2024/03/13 00:10:00, 763560600.00, -0.029900, -0.027400, -0.016300
2024/03/13 00:15:00, 763560900.00, -0.023800, -0.027800, 0.002500
2024/03/13 00:20:00, 763561200.00, -0.016400, -0.020000, 0.001000
2024/03/13 00:25:00, 763561500.00, -0.006000, -0.017200, -0.001500
2024/03/13 00:30:00, 763561800.00, -0.010200, -0.013800, 0.012300
2024/03/13 00:35:00, 763562100.00, -0.005700, -0.006500, 0.020700
2024/03/13 00:40:00, 763562400.00, -0.006500, -0.014400, 0.026300
2024/03/13 00:45:00, 763562700.00, 0.001800, -0.012400, 0.014200
2024/03/13 00:50:00, 763563000.00, -0.000300, -0.012600, 0.019300
2024/03/13 00:55:00, 763563300.00, 0.003800, -0.013800, 0.015600
2024/03/13 01:00:00, 763563600.00, -0.005100, -0.012500, 0.011600
2024/03/13 01:05:00, 763563900.00, -0.006400, -0.006200, 0.013400
2024/03/13 01:10:00, 763564200.00, -0.007200, -0.006200, 0.006700
2024/03/13 01:15:00, 763564500.00, 0.004200, -0.017300, 0.003400
2024/03/13 01:20:00, 763564800.00, -0.007900, -0.010200, 0.008100
2024/03/13 01:25:00, 763565100.00, 0.001800, -0.012400, -0.003100
2024/03/13 01:30:00, 763565400.00, 0.005600, -0.015200, 0.006200
2024/03/13 01:35:00, 763565700.00, 0.006700, -0.007100, 0.008400
2024/03/13 01:40:00, 763566000.00, 0.004800, -0.001700, -0.010300
2024/03/13 01:45:00, 763566300.00, 0.009400, -0.007900, 0.009500
2024/03/13 01:50:00, 763566600.00, 0.008700, -0.009900, -0.011100
2024/03/13 01:55:00, 763566900.00, 0.006400, -0.009900, -0.015700
2024/03/13 02:00:00, 763567200.00, -0.001600, -0.010900, -0.005900
2024/03/13 02:05:00, 763567500.00, 0.000000, -0.010000, -0.002200
2024/03/13 02:10:00, 763567800.00, 0.000200, -0.003400, -0.004700
2024/03/13 02:15:00, 763568100.00, 0.004100, -0.006000, 0.002000
2024/03/13 02:20:00, 763568400.00, -0.004500, -0.006600, 0.003600
2024/03/13 02:25:00, 763568700.00, 0.010200, -0.010000, 0.009600
2024/03/13 02:30:00, 763569000.00, 0.005000, -0.009900, 0.005300
2024/03/13 02:35:00, 763569300.00, 0.011500, -0.008300, -0.009200
2024/03/13 02:40:00, 763569600.00, 0.007600, -0.007200, 0.006900
2024/03/13 02:45:00, 763569900.00, 0.011900, -0.009200, 0.011700
2024/03/13 02:50:00, 763570200.00, 0.018600, -0.003900, 0.020000
2024/03/13 02:55:00, 763570500.00, 0.011500, -0.003500, 0.017200
2024/03/13 03:00:00, 763570800.00, 0.017800, 0.000400, 0.029300
2024/03/13 03:05:00, 763571100.00, 0.010100, -0.002700, 0.022600
2024/03/13 03:10:00, 763571400.00, 0.004800, -0.000700, 0.030500
2024/03/13 03:15:00, 763571700.00, 0.014700, 0.002600, 0.020800
2024/03/13 03:20:00, 763572000.00, 0.011700, -0.001400, 0.020400
2024/03/13 03:25:00, 763572300.00, 0.010500, -0.003600, 0.025600
2024/03/13 03:30:00, 763572600.00, 0.004500, -0.001400, 0.013200
2024/03/13 03:35:00, 763572900.00, 0.005000, -0.000800, 0.020000
2024/03/13 03:40:00, 763573200.00, 0.006600, -0.005500, 0.013900
2024/03/13 03:45:00, 763573500.00, 0.004100, -0.004700, 0.003600
2024/03/13 03:50:00, 763573800.00, 0.008800, 0.003600, 0.009600
2024/03/13 03:55:00, 763574100.00, 0.012600, -0.005400, 0.008700
2024/03/13 04:00:00, 763574400.00, 0.009500, -0.005200, 0.006500
2024/03/13 04:05:00, 763574700.00, 0.014200, 0.004300, 0.005900
2024/03/13 04:10:00, 763575000.00, 0.010900, -0.003300, 0.018000
2024/03/13 04:15:00, 763575300.00, 0.014100, -0.004700, 0.018100
2024/03/13 04:20:00, 763575600.00, 0.015300, -0.010800, 0.014000
2024/03/13 04:25:00, 763575900.00, 0.018300, -0.008300, 0.008700
2024/03/13 04:30:00, 763576200.00, 0.005200, -0.001500, 0.024100
2024/03/13 04:35:00, 763576500.00, 0.005500, -0.003400, 0.005300
2024/03/13 04:40:00, 763576800.00, 0.003300, -0.000500, 0.026200
2024/03/13 04:45:00, 763577100.00, -0.000300, 0.000400, 0.022800
2024/03/13 04:50:00, 763577400.00, 0.006600, -0.000800, 0.013100
2024/03/13 04:55:00, 763577700.00, -0.002900, 0.004400, 0.007500
2024/03/13 05:00:00, 763578000.00, 0.007600, 0.000800, 0.010100
2024/03/13 05:05:00, 763578300.00, 0.004600, -0.008900, -0.015600
2024/03/13 05:10:00, 763578600.00, 0.011200, -0.003700, 0.004200
2024/03/13 05:15:00, 763578900.00, 0.009600, 0.001800, 0.000400
2024/03/13 05:20:00, 763579200.00, 0.012100, -0.001300, -0.005600
2024/03/13 05:25:00, 763579500.00, 0.015700, -0.000200, -0.010400
2024/03/13 05:30:00, 763579800.00, 0.016900, -0.003700, -0.009500
2024/03/13 05:35:00, 763580100.00, 0.015800, -0.001700, 0.011100
2024/03/13 05:40:00, 763580400.00, 0.014600, 0.002400, 0.033800
2024/03/13 05:45:00, 763580700.00, 0.012300, -0.002800, 0.017100
2024/03/13 05:50:00, 763581000.00, 0.011300, 0.004800, 0.020300
2024/03/13 05:55:00, 763581300.00, 0.009200, -0.002600, 0.008700
2024/03/13 06:00:00, 763581600.00, 0.003600, 0.003400, -0.009700
2024/03/13 06:05:00, 763581900.00, 0.002700, 0.002700, 0.002500
2024/03/13 06:10:00, 763582200.00, 0.004300, 0.003700, 0.012100
2024/03/13 06:15:00, 763582500.00, 0.008900, 0.012900, 0.004200
2024/03/13 06:20:00, 763582800.00, 0.004300, 0.008700, 0.004500
2024/03/13 06:25:00, 763583100.00, 0.007600, 0.007600, 0.000900
2024/03/13 06:30:00, 763583400.00, 0.012400, 0.007100, 0.011600
2024/03/13 06:35:00, 763583700.00, 0.011000, 0.009100, 0.002700
2024/03/13 06:40:00, 763584000.00, 0.006600, 0.016300, 0.003000